[[{"header":{"parameterUnit":"m.s-1","parameterCategory":1,"la1":30.2991,"la2":30.254,"lo1":-89.0895,"lo2":-89.0444,"dy":0.0017,"dx":0.0017,"nx":28,"ny":28,"refTime":"2024-09-27T21:00:00:Z","depth":0,"parameterNumber":2,"parameterNumberName":"U-component_of_WINDS"},"data":[0,0,0,0,0,0,0,0,0,0,0,0,0,0,0,0,0,0,0,0,0,0,0,0,0,0,0,0,0,0,0,0,0,0,0,0,0,0,0,0,0,0,0,0,0,0,0,0,0,0,0,0,0,0,0,0,0,0,3.6616,3.6618,0,3.6773,3.6775,3.6776,3.6751,3.6748,3.6746,3.6743,3.6909,3.6916,3.6923,0,0,0,0,0,0,0,0,0,0,0,0,0,3.6301,3.6307,3.6616,3.6618,3.662,3.6772,3.6775,3.6777,3.6752,3.6748,3.6745,3.6742,3.6907,3.6915,3.6923,0,0,0,0,0,0,0,0,0,0,0,0,0,3.6446,3.6309,3.6616,3.6626,3.6628,3.6772,3.6775,3.6777,3.6752,3.6748,3.6744,3.674,3.6904,3.6914,3.6924,3.707,0,0,3.6956,3.6961,0,0,0,0,0,0,0,0,3.6438,3.6458,3.6622,3.6625,3.6628,3.6738,3.6724,3.6876,3.6753,3.6705,3.6743,3.6738,3.6856,3.687,3.6908,3.7078,3.7085,3.6957,3.6963,3.6968,3.6971,0,0,0,0,0,0,0,3.6428,3.6451,3.6678,3.6625,3.6628,3.6624,3.664,3.6753,3.6802,3.6709,3.6708,3.6726,3.6857,3.6898,3.6912,3.7087,3.6957,3.6966,3.6972,3.6977,3.7386,3.739,0,0,0,0,0,0,3.6414,3.6442,3.6673,3.6683,3.6521,3.6633,3.6651,3.6707,3.68,3.681,3.673,3.6725,3.6883,3.69,3.6918,3.7095,3.6968,3.6978,3.6984,3.7381,3.7387,3.7392,0,0,0,0,0,0,3.6407,3.6435,3.6667,3.6562,3.6592,3.6643,3.6706,3.6712,3.6754,3.6816,3.6825,3.6763,3.688,3.6903,3.7032,3.7101,3.6982,3.6992,3.7376,3.7383,3.7389,3.7451,0,0,0,0,0,0,3.6398,3.6433,3.6487,3.6564,3.6597,3.6777,3.671,3.6718,3.6771,3.6766,3.6849,3.6859,3.6879,3.7017,3.7043,3.7113,3.7,3.737,3.7379,3.7387,3.7443,3.7459,3.7473,0,0,0,0,0,3.6387,3.6499,3.649,3.6518,3.6666,3.6781,3.6801,3.6819,3.6777,3.6833,3.6873,3.6857,3.7089,3.703,3.7059,3.7134,3.7366,3.7376,3.7386,3.7437,3.7456,3.7473,0,0,0,0,0,0,3.6431,3.6509,3.65,3.664,3.6704,3.6777,3.6848,3.6839,3.6918,3.691,3.6931,3.695,3.7082,3.712,3.7054,3.728,3.7222,3.7238,3.725,3.7269,3.7284,3.7272,3.7008,0,0,0,0,0,3.6456,3.6541,3.6606,3.6723,3.6756,3.6796,3.6847,3.6856,3.6924,3.6951,3.7001,3.7069,3.7157,3.7215,3.73,3.7449,3.7467,3.7514,3.7529,3.7541,3.7556,3.7639,3.7661,3.7426,3.7426,3.7426,0,0,3.6511,3.6564,3.6617,3.6733,3.6784,3.6874,3.682,3.6916,3.6984,3.6967,3.7091,3.713,3.7208,3.7348,3.7412,3.7384,3.7625,3.7554,3.7563,3.7572,3.7652,3.7674,3.7694,3.7433,3.7432,3.7431,0,0,3.6655,3.6704,3.6807,3.6859,3.6936,3.6962,3.6987,3.7062,3.7086,3.7211,3.7201,3.7282,3.7433,3.749,3.7538,3.7705,3.7694,3.7732,3.7811,3.7891,3.791,3.7926,3.7987,3.8009,3.7746,3.7746,3.7746,0,3.6714,3.6846,3.6862,3.696,3.7012,3.6999,3.7105,3.7156,3.7257,3.7295,3.7262,3.7452,3.7503,3.7657,3.7697,3.7737,3.7767,3.7723,3.7905,3.7922,3.7938,3.7996,3.8019,3.7751,3.775,3.775,3.7749,0,3.6915,3.7007,3.7082,3.7178,3.7239,3.7341,3.7374,3.7434,3.7437,3.7468,3.7596,3.7658,3.7755,3.7792,3.7797,3.7947,3.7927,3.79,3.7842,3.7964,3.802,3.8042,3.7757,3.7755,3.7754,3.7753,0,0,3.7092,3.7195,3.7223,3.7267,3.7351,3.7424,3.7526,3.7619,3.7671,3.7742,3.7829,3.7958,3.7933,3.7988,3.8,3.807,3.82,3.8034,3.8037,3.8064,3.8371,3.8392,3.8417,3.8193,3.8197,3.8201,3.8365,0,3.7245,3.7423,3.744,3.7601,3.7687,3.7677,3.7766,3.7828,3.786,3.7939,3.7975,3.8066,3.8026,3.8059,3.8129,3.817,3.8262,3.8158,3.8276,3.828,3.8258,3.8446,3.8468,3.862,3.8386,3.839,3.8393,0,3.7448,3.7523,3.7692,3.7765,3.7802,3.7881,3.7969,3.8044,3.8116,3.8134,3.8196,3.8198,3.8305,3.8242,3.8391,3.832,3.8369,3.8397,3.8404,3.8416,3.8345,3.8465,3.8669,3.8692,3.8427,3.8424,3.8422,0,3.7561,3.7705,3.7825,3.7863,3.795,3.8007,3.8046,3.8114,3.8169,3.8247,3.8283,3.8373,3.8422,3.8492,3.852,3.8471,3.8668,3.8607,3.8688,3.8688,3.8731,3.8728,3.8947,3.8761,3.8761,3.876,3.876,0,3.7732,3.7836,3.7877,3.7951,3.8067,3.8087,3.8203,3.824,3.83,3.8382,3.8379,3.8457,3.8487,3.8571,3.8593,3.8714,3.8736,3.8755,3.876,3.8756,3.8754,3.879,3.878,3.8766,3.8765,3.8764,3.8763,0,3.7878,3.791,3.804,3.8112,3.8133,3.8216,3.8279,3.8351,3.8381,3.8485,3.8511,3.856,3.8658,3.8691,3.8811,3.8826,3.8967,3.8962,3.8942,3.8944,3.9023,3.9016,3.9274,3.9309,3.9099,3.9101,3.9102,0,3.7985,3.8065,3.8145,3.8199,3.8241,3.8328,3.8384,3.8407,3.8467,3.8554,3.8617,3.8713,3.8792,3.895,3.8997,3.9088,3.9087,3.9171,3.9101,3.9095,3.909,3.9085,3.9094,3.9184,3.9187,3.9188,3.919,0,3.8172,3.8184,3.8264,3.8351,3.8418,3.8488,3.8555,3.86,3.8633,3.87,3.88,3.8861,3.8982,3.9079,3.9173,3.9216,3.921,3.9211,3.9235,3.9232,3.9218,3.9228,3.8979,3.9206,3.9204,3.9203,3.9202,3.9201,3.8303,3.8374,3.8442,3.8532,3.8585,3.8648,3.872,3.8758,3.8841,3.894,3.8949,3.9057,3.9128,3.9253,3.93,3.9386,3.9363,3.9397,3.9406,3.9415,3.9421,3.9203,3.9403,3.9403,3.9402,3.9402,3.9402,0,3.8491,3.8534,3.8617,3.871,3.8782,3.8768,3.8842,3.8903,3.8997,3.9063,3.914,3.9255,3.9349,3.9404,3.9499,3.9557,3.9557,3.9581,3.9578,3.9588,3.9436,3.9406,3.958,3.958,3.958,3.958,3.958,3.958,3.8597,3.8716,3.8736,3.8882,3.8925,3.9029,3.9073,3.9132,3.9184,3.9312,3.939,3.9424,3.9486,3.9585,3.9672,3.9686,3.9721,3.9749,3.976,3.9617,3.9599,3.9581,3.9554,3.9756,3.9756,3.9906,3.9907,3.9908]},{"header":{"parameterUnit":"m.s-1","parameterCategory":1,"la1":30.2991,"la2":30.254,"lo1":-89.0895,"lo2":-89.0444,"dy":0.0017,"dx":0.0017,"nx":28,"ny":28,"refTime":"2024-09-27T21:00:00:Z","depth":0,"parameterNumber":3,"parameterNumberName":"V-component_of_WINDS"},"data":[0,0,0,0,0,0,0,0,0,0,0,0,0,0,0,0,0,0,0,0,0,0,0,0,0,0,0,0,0,0,0,0,0,0,0,0,0,0,0,0,0,0,0,0,0,0,0,0,0,0,0,0,0,0,0,0,0,0,2.0663,2.0663,0,2.0692,2.0692,2.0693,2.0669,2.0668,2.0667,2.0666,2.0694,2.0696,2.0697,0,0,0,0,0,0,0,0,0,0,0,0,0,2.0586,2.0588,2.0663,2.0663,2.0664,2.0692,2.0692,2.0693,2.0669,2.0668,2.0667,2.0665,2.0693,2.0695,2.0697,0,0,0,0,0,0,0,0,0,0,0,0,0,2.0618,2.0588,2.0663,2.0655,2.0655,2.0692,2.0692,2.0693,2.0669,2.0668,2.0666,2.0665,2.0693,2.0695,2.0698,2.0743,0,0,2.0705,2.0707,0,0,0,0,0,0,0,0,2.0616,2.062,2.0656,2.0656,2.0656,2.0675,2.0675,2.071,2.067,2.0664,2.0666,2.0664,2.0689,2.0692,2.07,2.0744,2.0746,2.0706,2.0707,2.0708,2.0709,0,0,0,0,0,0,0,2.0614,2.0619,2.0674,2.0657,2.0656,2.065,2.0653,2.0682,2.0684,2.0664,2.0663,2.0666,2.0688,2.0698,2.0701,2.0746,2.0706,2.0708,2.0709,2.071,2.0828,2.083,0,0,0,0,0,0,2.0612,2.0617,2.0673,2.0675,2.0632,2.0653,2.0656,2.067,2.0684,2.0685,2.0668,2.0665,2.0694,2.0698,2.0702,2.0756,2.0708,2.0711,2.0712,2.0827,2.0829,2.0831,0,0,0,0,0,0,2.0611,2.0618,2.0672,2.0646,2.0652,2.0656,2.0672,2.0672,2.0681,2.0687,2.0687,2.0677,2.0693,2.0698,2.0733,2.0756,2.0712,2.0714,2.0825,2.0827,2.083,2.0864,0,0,0,0,0,0,2.0609,2.0617,2.0635,2.0647,2.0654,2.0704,2.0674,2.0673,2.0686,2.0683,2.0695,2.0696,2.0692,2.0729,2.0736,2.0759,2.0716,2.0823,2.0826,2.0829,2.0861,2.0867,2.0873,0,0,0,0,0,2.0606,2.0643,2.0636,2.0643,2.0676,2.0705,2.0709,2.0705,2.0688,2.0705,2.0709,2.0696,2.0753,2.0733,2.074,2.0764,2.0821,2.0825,2.0829,2.0858,2.0866,2.0873,0,0,0,0,0,0,2.0634,2.0645,2.0637,2.0679,2.0691,2.0701,2.0723,2.0714,2.0731,2.0727,2.0721,2.0724,2.0761,2.0766,2.0744,2.0809,2.0784,2.0789,2.0804,2.0812,2.0818,2.0816,2.0718,0,0,0,0,0,2.0645,2.0668,2.0676,2.0712,2.0719,2.072,2.0732,2.0728,2.0741,2.0746,2.0752,2.0764,2.0785,2.0798,2.0818,2.0861,2.0864,2.0881,2.0887,2.0892,2.0897,2.092,2.0928,2.0843,2.0843,2.0843,0,0,2.0668,2.0676,2.0691,2.0718,2.0727,2.0751,2.0725,2.0751,2.0768,2.075,2.0783,2.0788,2.0801,2.0841,2.0858,2.0846,2.0921,2.0897,2.0901,2.0903,2.0925,2.0933,2.094,2.0845,2.0845,2.0844,0,0,2.0722,2.0731,2.0762,2.0772,2.0786,2.0787,2.0794,2.0806,2.0808,2.0842,2.0828,2.0849,2.0884,2.0895,2.0904,2.0962,2.0951,2.0968,2.1,2.1023,2.103,2.1036,2.1056,2.1064,2.0973,2.0973,2.0973,0,2.0748,2.0784,2.0779,2.0807,2.0818,2.0803,2.0834,2.0844,2.0864,2.0872,2.0858,2.0903,2.0911,2.0952,2.0966,2.0975,2.0983,2.0967,2.1029,2.1035,2.1041,2.106,2.1068,2.0975,2.0975,2.0975,2.0974,0,2.0816,2.0841,2.0864,2.0885,2.0899,2.0928,2.0927,2.0943,2.0937,2.0939,2.0973,2.0982,2.1002,2.1012,2.1006,2.1053,2.1045,2.103,2.1005,2.1051,2.1069,2.1077,2.0978,2.0977,2.0977,2.0976,0,0,2.0888,2.0906,2.0914,2.0923,2.0938,2.0957,2.0985,2.1006,2.1019,2.1033,2.1057,2.1088,2.1074,2.1085,2.1081,2.1101,2.1146,2.1084,2.1084,2.1095,2.1198,2.1209,2.1218,2.1138,2.114,2.1141,2.1197,0,2.0943,2.0993,2.099,2.1037,2.1059,2.1045,2.107,2.1081,2.1083,2.1103,2.1105,2.1127,2.1107,2.1114,2.1133,2.1136,2.1166,2.1132,2.116,2.1161,2.1157,2.1227,2.1239,2.1291,2.1204,2.1205,2.1206,0,2.1014,2.1031,2.1081,2.1092,2.1102,2.1124,2.1143,2.1162,2.1174,2.1174,2.1187,2.1179,2.1207,2.1181,2.1219,2.1196,2.1207,2.121,2.1212,2.1215,2.1186,2.1232,2.1308,2.1316,2.1217,2.1216,2.1215,0,2.1062,2.1098,2.1132,2.114,2.1154,2.117,2.1177,2.1188,2.12,2.1217,2.1225,2.1244,2.1254,2.1269,2.1266,2.1248,2.1305,2.1279,2.1306,2.1306,2.1319,2.1319,2.1398,2.1326,2.1326,2.1326,2.1325,0,2.1124,2.1155,2.1154,2.1175,2.1209,2.1204,2.1238,2.1242,2.1252,2.1273,2.1262,2.1282,2.1277,2.1296,2.1294,2.1326,2.1331,2.1332,2.1331,2.1333,2.1333,2.134,2.1337,2.1328,2.1327,2.1327,2.1326,0,2.1184,2.1184,2.1221,2.1231,2.1234,2.1259,2.1268,2.1287,2.1289,2.1316,2.1322,2.1324,2.1347,2.1345,2.1371,2.1369,2.1409,2.1403,2.1405,2.1404,2.1431,2.1429,2.1518,2.153,2.145,2.1451,2.1451,0,2.1223,2.1247,2.126,2.1274,2.1281,2.1304,2.1317,2.1313,2.1327,2.1343,2.136,2.1382,2.1399,2.1436,2.144,2.1459,2.1454,2.1484,2.1457,2.1459,2.1455,2.1454,2.1456,2.149,2.1491,2.1492,2.1492,0,2.1293,2.1292,2.1312,2.1332,2.1348,2.1364,2.1378,2.1389,2.1387,2.1403,2.1426,2.144,2.1466,2.1488,2.1506,2.1512,2.1502,2.1501,2.1508,2.1511,2.1511,2.1511,2.142,2.1499,2.1498,2.1498,2.1497,2.1497,2.1344,2.1364,2.1377,2.1399,2.141,2.1423,2.1442,2.1446,2.1466,2.1487,2.1483,2.151,2.1521,2.1545,2.1553,2.1573,2.1562,2.1573,2.1575,2.1578,2.1581,2.1507,2.1576,2.1576,2.1576,2.1576,2.1576,0,2.1414,2.1421,2.1442,2.1462,2.148,2.1469,2.1484,2.1499,2.1523,2.1535,2.1552,2.1579,2.16,2.1605,2.1625,2.164,2.1636,2.1645,2.1644,2.1646,2.159,2.1582,2.1649,2.1649,2.1649,2.1649,2.1649,2.1649,2.1452,2.1486,2.1487,2.1525,2.1532,2.1559,2.1568,2.158,2.159,2.1621,2.1638,2.1642,2.1651,2.1671,2.169,2.1691,2.1699,2.1711,2.171,2.1657,2.165,2.1643,2.1635,2.1712,2.1712,2.1764,2.1765,2.1765]}]]